Miscellaneous Local Product
Issued by NWS North Platte, NE

Home | Current Version | Previous Version | Graphics & Text | Print | Product List | Glossary On
Versions: 1 2 3 4 5 6 7 8 9 10 11 12 13 14 15 16 17 18 19 20 21 22 23 24 25 26 27 28 29 30 31 32 33 34 35 36 37 38 39 40 41 42 43 44 45 46 47 48 49 50
000
AXUS43 KLBF 300710
MISLBF


WESTERN AND NORTH CENTRAL NEBRASKA HOURLY WEATHER ROUNDUP
NATIONAL WEATHER SERVICE NORTH PLATTE NE
200 AM CDT FRI SEP 30 2016

NOTE: "FAIR" INDICATES FEW OR NO CLOUDS BELOW 12,000 FEET WITH NO
SIGNIFICANT WEATHER AND/OR OBSTRUCTIONS TO VISIBILITY.

NOTE: STATIONS NOT REPORTING VARIABLES SUCH AS SKY/WEATHER OR
PRESSURE ARE PROVIDED BY RAWS AND APRS NETWORKS AND ARE NOT UNDER
NATIONAL WEATHER SERVICE QUALITY CONTROL.

...OBSERVATIONS IN AND NEAR THE EASTERN PANHANDLE OF NEBRASKA...

CITY           SKY/WX    TMP DP  RH WIND       PRES   REMARKS
PINE RIDGE     CLEAR     59  42  53 S23G32    30.19F
CHADRON        PTCLDY    61  40  45 S12       30.18S
ALLIANCE       CLOUDY    52  40  63 SE15      30.23F
SIDNEY         CLOUDY    52  40  63 SE12      30.25F
$$

...OBSERVATIONS IN NORTHERN NEBRASKA AND FAR SOUTHERN SOUTH DAKOTA...

CITY           SKY/WX    TMP DP  RH WIND       PRES   REMARKS
WINNER         FAIR      52  44  74 SE14      30.27F
VALENTINE      CLEAR     53  42  66 S12       30.28
THEDFORD       CLEAR     48  42  79 SE5       30.30S
AINSWORTH      CLEAR     51  45  80 SE9       30.29F
O`NEILL        CLEAR     48  44  86 SE5       30.33S
ORD            CLEAR     42  37  82 CALM      30.31F
BROKEN BOW     CLEAR     39  38  96 CALM      30.31F
VALENTINE NWR    N/A     49  42  78 S7          N/A
BUTTE            N/A     47  44  89 SE7         N/A
HALSEY           N/A     48  41  78 SE7         N/A
EWING            N/A     46  43  90 CALM        N/A
$$

...OBSERVATIONS IN SOUTHWEST NEBRASKA AND FAR NORTHEAST COLORADO...

CITY           SKY/WX    TMP DP  RH WIND       PRES   REMARKS
WRAY           FAIR      48  37  66 E6        30.26F
HOLYOKE        FAIR      52  39  62 SE8       30.27S
IMPERIAL       CLEAR     50  42  74 SE12      30.27F
OGALLALA       CLEAR     53  42  67 SE5       30.28S
NORTH PLATTE   CLEAR     44  40  85 E7        30.30F
MCCOOK         CLEAR     49  43  80 E5        30.30F
LEXINGTON      CLEAR     45  41  87 E3        30.31F
STAPLETON        N/A     45  41  85 CALM        N/A
GOTHENBURG       N/A     46  40  79 CALM        N/A
CALLAWAY         N/A     45  43  92 S8          N/A
$$

...OBSERVATIONS IN CENTRAL LINCOLN COUNTY AREA...

CITY           SKY/WX    TMP DP  RH WIND       PRES   REMARKS
N.P. AIRPORT   CLEAR     44  40  85 E7        30.30F
N.P. DOWNTOWN    N/A     52  44  75 CALM        N/A
N.P. SOUTHEAST   N/A     51  43  75 SE3         N/A
N.P. HILLCREST   N/A     49  42  78 SE6         N/A
$$

...SOME OBSERVATIONS FROM AROUND THE REGION...

CITY           SKY/WX    TMP DP  RH WIND       PRES   REMARKS
DENVER         CLOUDY    61  38  42 W7        30.22F
LARAMIE        CLOUDY    50  44  80 S5        30.35F
CHEYENNE       CLOUDY    54  40  59 CALM      30.27F
SCOTTSBLUFF    CLOUDY    53  42  66 E8        30.23F
RAPID CITY     CLOUDY    61  43  51 SE10      30.16F
BISMARCK       PTCLDY    51  45  79 SE12      30.23F
PIERRE         CLEAR     54  46  74 SE14      30.23F
SIOUX FALLS    CLEAR     47  44  90 NE3       30.35F
OMAHA          CLEAR     50  45  83 N7        30.32F
GRAND ISLAND   CLEAR     48  44  86 SE5       30.33F
KANSAS CITY    PTCLDY    54  46  74 N5        30.26F
WICHITA        PTCLDY    53  50  89 NW5       30.29F
OKLAHOMA CITY  PTCLDY    56  50  80 N6        30.27F
DALLAS         CLEAR     60  52  74 N8        30.21F
AMARILLO       CLEAR     51  43  74 S7        30.31F
DODGE CITY     CLEAR     49  45  86 S7        30.30F
HAYS           CLEAR     45  36  70 CALM      30.31S
GOODLAND       CLEAR     48  39  71 S12       30.26F
$$




USA.gov is the U.S. government's official web portal to all federal, state and local government web resources and services.